When you browse on this site, cookies collect data to enhance your experience and personalize the content and advertising you see.
Visit our Privacy Policy to learn more. By continuing to use the site, you agree to this use of cookies and data.
  • In Spain
  • List of Countries
  • For 7 days
  • Water Temperature
  • Satellite Maps
  • Weather Map
  • Weather Widgets
  • user-avatar
    Login

    Hourly Weather Blantyre

    Today, 26 June, Wednesday

    Time Temperature Precipitation Wind Pressure Humidity
    00:00 +14°C° 0 mm 2 mps 678 mmHg 86%
    01:00 +14°C° 0 mm 2 mps 678 mmHg 90%
    02:00 +14°C° 0 mm 2 mps 677 mmHg 93%
    03:00 +14°C° 0 mm 2 mps 678 mmHg 93%
    04:00 +13°C° 0 mm 2 mps 678 mmHg 93%
    05:00 +13°C° 0 mm 2 mps 678 mmHg 93%
    06:00 +14°C° 0 mm 1 mps 679 mmHg 89%
    07:00 +15°C° 0 mm 1 mps 680 mmHg 84%
    08:00 +16°C° 0 mm 1 mps 680 mmHg 79%
    09:00 +18°C° 0 mm 2 mps 681 mmHg 70%
    10:00 +19°C° 0 mm 2 mps 681 mmHg 60%
    11:00 +21°C° 0 mm 3 mps 681 mmHg 50%
    12:00 +22°C° 0 mm 3 mps 680 mmHg 48%
    13:00 +22°C° 0 mm 3 mps 680 mmHg 47%
    14:00 +22°C° 0 mm 3 mps 679 mmHg 45%
    15:00 +21°C° 0 mm 3 mps 679 mmHg 52%
    16:00 +20°C° 0 mm 3 mps 679 mmHg 58%
    17:00 +19°C° 0 mm 3 mps 679 mmHg 65%
    18:00 +18°C° 0 mm 3 mps 679 mmHg 70%
    19:00 +16°C° 0 mm 2 mps 679 mmHg 75%
    20:00 +15°C° 0 mm 2 mps 679 mmHg 80%
    21:00 +15°C° 0 mm 2 mps 679 mmHg 82%
    22:00 +14°C° 0 mm 2 mps 679 mmHg 84%
    23:00 +14°C° 0 mm 2 mps 679 mmHg 86%

    Tomorrow, 27 June, Thursday

    Time Temperature Precipitation Wind Pressure Humidity
    00:00 +14°C° 0 mm 2 mps 679 mmHg 89%
    01:00 +13°C° 0 mm 2 mps 678 mmHg 91%
    02:00 +13°C° 0 mm 1 mps 678 mmHg 94%
    03:00 +12°C° 0 mm 1 mps 678 mmHg 92%
    04:00 +12°C° 0 mm 1 mps 678 mmHg 91%
    05:00 +11°C° 0 mm 1 mps 678 mmHg 90%
    06:00 +13°C° 0 mm 1 mps 679 mmHg 84%
    07:00 +14°C° 0 mm 1 mps 679 mmHg 78%
    08:00 +15°C° 0 mm 1 mps 680 mmHg 73%
    09:00 +17°C° 0 mm 2 mps 680 mmHg 65%
    10:00 +18°C° 0 mm 2 mps 680 mmHg 58%
    11:00 +20°C° 0 mm 3 mps 681 mmHg 50%
    12:00 +20°C° 0 mm 3 mps 680 mmHg 48%
    13:00 +21°C° 0 mm 3 mps 680 mmHg 46%
    14:00 +21°C° 0 mm 3 mps 679 mmHg 44%
    15:00 +20°C° 0 mm 2 mps 679 mmHg 48%
    16:00 +19°C° 0 mm 2 mps 678 mmHg 53%
    17:00 +18°C° 0 mm 2 mps 678 mmHg 58%
    18:00 +16°C° 0 mm 2 mps 678 mmHg 61%
    19:00 +15°C° 0 mm 2 mps 678 mmHg 64%
    20:00 +14°C° 0 mm 1 mps 678 mmHg 67%
    21:00 +14°C° 0 mm 1 mps 678 mmHg 70%
    22:00 +13°C° 0 mm 1 mps 678 mmHg 72%
    23:00 +13°C° 0 mm 1 mps 678 mmHg 75%

    Day after tomorrow, 28 June, Friday

    Time Temperature Precipitation Wind Pressure Humidity
    00:00 +13°C° 0 mm 1 mps 678 mmHg 78%
    01:00 +12°C° 0 mm 1 mps 678 mmHg 80%
    02:00 +12°C° 0 mm 1 mps 678 mmHg 83%
    03:00 +12°C° 0 mm 1 mps 677 mmHg 84%
    04:00 +12°C° 0 mm 1 mps 677 mmHg 85%
    05:00 +11°C° 0 mm 1 mps 677 mmHg 86%
    06:00 +13°C° 0 mm 1 mps 678 mmHg 80%
    07:00 +15°C° 0 mm 1 mps 679 mmHg 73%
    08:00 +16°C° 0 mm 1 mps 680 mmHg 67%
    09:00 +19°C° 0 mm 1 mps 680 mmHg 59%
    10:00 +21°C° 0 mm 1 mps 680 mmHg 52%
    11:00 +23°C° 0 mm 2 mps 680 mmHg 45%
    12:00 +23°C° 0 mm 2 mps 680 mmHg 43%
    13:00 +24°C° 0 mm 2 mps 679 mmHg 41%
    14:00 +24°C° 0 mm 2 mps 678 mmHg 39%
    15:00 +23°C° 0 mm 2 mps 678 mmHg 45%
    16:00 +20°C° 0 mm 2 mps 678 mmHg 50%
    17:00 +19°C° 0 mm 2 mps 677 mmHg 56%
    18:00 +18°C° 0 mm 2 mps 677 mmHg 60%
    19:00 +16°C° 0 mm 1 mps 678 mmHg 63%
    20:00 +15°C° 0 mm 1 mps 678 mmHg 67%
    21:00 +15°C° 0 mm 1 mps 678 mmHg 69%
    22:00 +14°C° 0 mm 1 mps 678 mmHg 71%
    23:00 +14°C° 0 mm 1 mps 678 mmHg 74%

    29 June, Saturday

    Time Temperature Precipitation Wind Pressure Humidity
    00:00 +14°C° 0 mm 1 mps 678 mmHg 74%
    01:00 +13°C° 0 mm 1 mps 677 mmHg 75%
    02:00 +13°C° 0 mm 1 mps 677 mmHg 75%
    03:00 +13°C° 0 mm 1 mps 677 mmHg 75%
    04:00 +13°C° 0 mm 1 mps 677 mmHg 75%
    05:00 +12°C° 0 mm 1 mps 678 mmHg 75%
    06:00 +14°C° 0 mm 1 mps 678 mmHg 69%
    07:00 +15°C° 0 mm 0 mps 679 mmHg 63%
    08:00 +16°C° 0 mm 0 mps 680 mmHg 57%
    09:00 +19°C° 0 mm 0 mps 680 mmHg 51%
    10:00 +21°C° 0 mm 0 mps 681 mmHg 44%
    11:00 +25°C° 0 mm 1 mps 681 mmHg 37%
    12:00 +26°C° 0 mm 1 mps 680 mmHg 35%
    13:00 +26°C° 0 mm 1 mps 680 mmHg 34%
    14:00 +27°C° 0 mm 1 mps 679 mmHg 32%
    15:00 +25°C° 0 mm 1 mps 679 mmHg 37%
    16:00 +23°C° 0 mm 1 mps 678 mmHg 43%
    17:00 +21°C° 0 mm 1 mps 678 mmHg 49%
    18:00 +20°C° 0 mm 1 mps 678 mmHg 53%
    19:00 +18°C° 0 mm 2 mps 678 mmHg 57%
    20:00 +17°C° 0 mm 2 mps 678 mmHg 61%
    21:00 +16°C° 0 mm 2 mps 678 mmHg 63%
    22:00 +16°C° 0 mm 1 mps 678 mmHg 65%
    23:00 +15°C° 0 mm 1 mps 678 mmHg 67%

    30 June, Sunday

    Time Temperature Precipitation Wind Pressure Humidity
    00:00 +15°C° 0 mm 1 mps 678 mmHg 71%
    01:00 +14°C° 0 mm 1 mps 678 mmHg 74%
    02:00 +14°C° 0 mm 1 mps 678 mmHg 78%
    03:00 +14°C° 0 mm 1 mps 678 mmHg 77%
    04:00 +14°C° 0 mm 1 mps 678 mmHg 77%
    05:00 +14°C° 0 mm 1 mps 678 mmHg 77%
    06:00 +15°C° 0 mm 1 mps 679 mmHg 72%
    07:00 +18°C° 0 mm 1 mps 680 mmHg 68%
    08:00 +19°C° 0 mm 1 mps 681 mmHg 63%
    09:00 +21°C° 0 mm 1 mps 681 mmHg 56%
    10:00 +23°C° 0 mm 1 mps 681 mmHg 50%
    11:00 +26°C° 0 mm 1 mps 681 mmHg 43%
    12:00 +26°C° 0 mm 1 mps 681 mmHg 43%
    13:00 +26°C° 0 mm 2 mps 680 mmHg 44%
    14:00 +26°C° 0 mm 2 mps 679 mmHg 44%
    15:00 +24°C° 0 mm 2 mps 679 mmHg 50%
    16:00 +23°C° 0 mm 2 mps 679 mmHg 55%
    17:00 +21°C° 0 mm 2 mps 678 mmHg 60%
    18:00 +20°C° 0 mm 2 mps 678 mmHg 64%
    19:00 +19°C° 0 mm 2 mps 678 mmHg 68%
    20:00 +18°C° 0 mm 2 mps 679 mmHg 71%
    21:00 +18°C° 0 mm 1 mps 679 mmHg 75%
    22:00 +18°C° 0 mm 1 mps 678 mmHg 80%
    23:00 +16°C° 0 mm 1 mps 678 mmHg 84%

    1 July, Monday

    Time Temperature Precipitation Wind Pressure Humidity
    00:00 +16°C° 0 mm 1 mps 678 mmHg 86%
    01:00 +16°C° 0 mm 1 mps 678 mmHg 88%
    02:00 +15°C° 0 mm 1 mps 677 mmHg 90%
    03:00 +15°C° 0 mm 1 mps 677 mmHg 90%
    04:00 +15°C° 0 mm 1 mps 677 mmHg 91%
    05:00 +15°C° 0 mm 1 mps 677 mmHg 92%
    06:00 +16°C° 0 mm 1 mps 678 mmHg 86%
    07:00 +19°C° 0 mm 1 mps 679 mmHg 81%
    08:00 +20°C° 0 mm 1 mps 680 mmHg 75%
    09:00 +22°C° 0 mm 1 mps 680 mmHg 66%
    10:00 +25°C° 0 mm 1 mps 680 mmHg 57%
    11:00 +27°C° 0 mm 1 mps 680 mmHg 48%
    12:00 +27°C° 0.1 mm 1 mps 679 mmHg 47%
    13:00 +27°C° 0.1 mm 1 mps 679 mmHg 46%
    14:00 +27°C° 0.1 mm 1 mps 678 mmHg 45%
    15:00 +26°C° 0.1 mm 1 mps 678 mmHg 50%
    16:00 +25°C° 0.1 mm 1 mps 677 mmHg 56%
    17:00 +23°C° 0.1 mm 1 mps 677 mmHg 61%
    18:00 +23°C° 0 mm 1 mps 677 mmHg 63%
    19:00 +22°C° 0 mm 1 mps 677 mmHg 65%
    20:00 +21°C° 0 mm 1 mps 677 mmHg 67%
    21:00 +21°C° 0 mm 1 mps 677 mmHg 68%
    22:00 +20°C° 0 mm 1 mps 677 mmHg 70%
    23:00 +20°C° 0 mm 1 mps 677 mmHg 71%
    Show more